Weather History for Clinton, MO

Change the Weather History Date:

Thursday, May 30, 2013

  Actual Average (KSZL) Record (KSZL)
Temperature  
Mean Temperature 71 °F -  
Max Temperature 78 °F 75 °F 93 °F (1998)
Min Temperature 62 °F 56 °F 57 °F (1997)
Cooling Degree Days 6    
Growing Degree Days 21 (Base 50)    
Moisture  
Dew Point 63 °F    
Average Humidity 91    
Maximum Humidity 100    
Minimum Humidity 73    
Precipitation  
Precipitation 0.00 in - - ()
Sea Level Pressure  
Sea Level Pressure 29.77 in    
Wind  
Wind Speed 10 mph (South)    
Max Wind Speed 18 mph    
Max Gust Speed 30 mph    
Visibility 7 miles    
Events Rain , Thunderstorm    
Averages and records for this station are not official NWS values.
T = Trace of Precipitation, MM = Missing Value Source: NWS Daily Summary

Daily Weather History Graph

Daily Weather History Graph

Search for Another Location

Airport:

Trip Planner

Search our weather history database for the weather conditions in past years. The results will help you decide how hot, cold, wet, or windy it might be!

Date:

Astronomy

May. 30, 2013 Rise Set
Actual Time 5:53 AM CDT 8:31 PM CDT
Civil Twilight 5:22 AM CDT 9:02 PM CDT
Nautical Twilight 4:44 AM CDT 9:41 PM CDT
Astronomical Twilight 4:00 AM CDT 10:24 PM CDT
Moon 12:35 AM CDT (5/30) 11:59 AM CDT (5/30)
Length of Visible Light 15h 39m
Length of Day
14h 37m
Waning Gibbous, 62% of the Moon is Illuminated
May 30
Waning Gibbous
May 31
Last Quarter
Jun 8
New
Jun 16
First Quarter
Jun 23
Full

Hourly Weather History & Observations

Time (CDT) Temp. Dew Point Humidity Pressure Visibility Wind Dir Wind Speed Gust Speed Precip Events Conditions
12:15 AM 69.8 °F 62.6 °F 78% 29.81 in 9.0 mi SW 12.7 mph 20.7 mph N/A   Overcast
12:35 AM 69.8 °F 62.6 °F 78% 29.80 in 9.0 mi SSW 8.1 mph - N/A   Overcast
12:55 AM 69.8 °F 62.6 °F 78% 29.80 in 10.0 mi SSW 11.5 mph - N/A   Overcast
1:15 AM 69.8 °F 60.8 °F 73% 29.79 in 10.0 mi SSW 6.9 mph - N/A   Overcast
1:35 AM 69.8 °F 62.6 °F 78% 29.79 in 10.0 mi SW 10.4 mph - N/A   Overcast
1:55 AM 68.0 °F 62.6 °F 83% 29.81 in 10.0 mi SW 12.7 mph 18.4 mph N/A   Mostly Cloudy
2:15 AM 68.0 °F 62.6 °F 83% 29.81 in 10.0 mi SW 10.4 mph - N/A   Overcast
2:35 AM 66.2 °F 62.6 °F 88% 29.79 in 10.0 mi WSW 4.6 mph - N/A   Overcast
2:55 AM 66.2 °F 62.6 °F 88% 29.82 in 3.0 mi SW 8.1 mph 17.3 mph N/A Rain Heavy Rain
3:15 AM 64.4 °F 62.6 °F 94% 29.80 in 2.5 mi SW 3.5 mph - N/A Rain , Thunderstorm Light Rain
3:35 AM 64.4 °F 64.4 °F 100% 29.82 in 2.5 mi South 3.5 mph - N/A Rain , Thunderstorm Heavy Rain
3:55 AM 64.4 °F 64.4 °F 100% 29.81 in 3.0 mi South 4.6 mph - N/A Rain Heavy Rain
4:15 AM 64.4 °F 62.6 °F 94% 29.80 in 3.0 mi South 5.8 mph - N/A Rain Light Rain
4:35 AM 64.4 °F 62.6 °F 94% 29.79 in 7.0 mi SSE 8.1 mph - N/A   Light Drizzle
4:55 AM 64.4 °F 62.6 °F 94% 29.77 in 3.0 mi SE 9.2 mph - N/A Rain Light Rain
5:15 AM 64.4 °F 62.6 °F 94% 29.76 in 5.0 mi SSE 9.2 mph - N/A Rain Light Rain
5:35 AM 64.4 °F 62.6 °F 94% 29.76 in 10.0 mi South 9.2 mph - N/A   Scattered Clouds
5:55 AM 64.4 °F 62.6 °F 94% 29.72 in 10.0 mi SE 11.5 mph - N/A   Partly Cloudy
6:15 AM 64.4 °F 64.4 °F 100% 29.74 in 9.0 mi South 11.5 mph - N/A   Clear
6:35 AM 64.4 °F 64.4 °F 100% 29.77 in 10.0 mi South 11.5 mph - N/A   Clear
6:55 AM 64.4 °F 62.6 °F 94% 29.78 in 5.0 mi South 13.8 mph 19.6 mph N/A   Scattered Clouds
7:15 AM 64.4 °F 62.6 °F 94% 29.81 in 7.0 mi South 12.7 mph 21.9 mph N/A   Overcast
7:35 AM 64.4 °F 62.6 °F 94% 29.80 in 8.0 mi South 13.8 mph 19.6 mph N/A   Light Drizzle
7:55 AM 64.4 °F 62.6 °F 94% 29.80 in 3.0 mi South 13.8 mph 19.6 mph N/A   Mostly Cloudy
8:15 AM 64.4 °F 62.6 °F 94% 29.80 in 1.5 mi South 11.5 mph 18.4 mph N/A Rain Light Rain
8:35 AM 64.4 °F 62.6 °F 94% 29.79 in 2.5 mi South 12.7 mph 23.0 mph N/A   Mostly Cloudy
8:55 AM 64.4 °F 62.6 °F 94% 29.81 in 5.0 mi South 11.5 mph - N/A Rain Light Rain
9:15 AM 64.4 °F 62.6 °F 94% 29.81 in 1.2 mi South 15.0 mph 20.7 mph N/A Rain Rain
9:35 AM 64.4 °F 62.6 °F 94% 29.81 in 1.8 mi South 9.2 mph - N/A   Light Drizzle
9:55 AM 64.4 °F 62.6 °F 94% 29.82 in 6.0 mi South 5.8 mph - N/A   Overcast
10:15 AM 64.4 °F 62.6 °F 94% 29.83 in 5.0 mi SW 6.9 mph - N/A Rain , Thunderstorm Light Rain
10:35 AM 64.4 °F 62.6 °F 94% 29.79 in 2.0 mi SSE 6.9 mph - N/A   Light Drizzle
10:55 AM 66.2 °F 64.4 °F 94% 29.77 in 10.0 mi SE 8.1 mph - N/A   Mostly Cloudy
11:15 AM 66.2 °F 64.4 °F 94% 29.75 in 9.0 mi ESE 8.1 mph - N/A   Scattered Clouds
11:35 AM 69.8 °F 66.2 °F 88% 29.74 in 10.0 mi SE 13.8 mph 19.6 mph N/A   Scattered Clouds
11:55 AM 69.8 °F 66.2 °F 88% 29.74 in 9.0 mi SE 11.5 mph - N/A   Scattered Clouds
12:15 PM 71.6 °F 68.0 °F 88% 29.74 in 10.0 mi SSE 11.5 mph 19.6 mph N/A   Mostly Cloudy
12:35 PM 73.4 °F 69.8 °F 88% 29.73 in 10.0 mi SSE 11.5 mph 17.3 mph N/A   Mostly Cloudy
12:55 PM 73.4 °F 69.8 °F 88% 29.72 in 8.0 mi SSE 16.1 mph 24.2 mph N/A   Overcast
1:15 PM 78.8 °F 71.6 °F 78% 29.70 in 9.0 mi SSE 17.3 mph 23.0 mph N/A   Scattered Clouds
1:35 PM 78.8 °F 71.6 °F 78% 29.71 in 9.0 mi South 15.0 mph 25.3 mph N/A   Partly Cloudy
1:55 PM 69.8 °F 62.6 °F 78% 29.79 in 8.0 mi West 18.4 mph 26.5 mph N/A Thunderstorm Light Drizzle
2:15 PM 64.4 °F 62.6 °F 94% 29.77 in 1.2 mi SW 15.0 mph 29.9 mph N/A Rain , Thunderstorm Rain
2:35 PM 64.4 °F 62.6 °F 94% 29.75 in 7.0 mi WSW 10.4 mph 17.3 mph N/A Thunderstorm Drizzle
2:55 PM 66.2 °F 62.6 °F 88% 29.75 in 4.0 mi SSW 10.4 mph - N/A Rain , Thunderstorm Rain
3:15 PM 64.4 °F 62.6 °F 94% 29.77 in 2.0 mi South 11.5 mph 16.1 mph N/A Rain , Thunderstorm Light Thunderstorms and Rain
3:35 PM 64.4 °F 62.6 °F 94% 29.76 in 4.0 mi South 9.2 mph - N/A Rain , Thunderstorm Heavy Thunderstorms and Rain
3:55 PM 66.2 °F 62.6 °F 88% 29.77 in 7.0 mi South 9.2 mph - N/A   Overcast
4:15 PM 66.2 °F 62.6 °F 88% 29.78 in 4.0 mi South 10.4 mph - N/A Rain Light Rain
4:35 PM 64.4 °F 62.6 °F 94% 29.78 in 3.0 mi South 9.2 mph - N/A Rain Light Rain
4:55 PM 64.4 °F 62.6 °F 94% 29.77 in 3.0 mi South 8.1 mph - N/A Rain Light Rain
5:15 PM 64.4 °F 62.6 °F 94% 29.77 in 4.0 mi SSE 11.5 mph - N/A Rain Light Rain
5:35 PM 64.4 °F 62.6 °F 94% 29.72 in 1.8 mi SE 18.4 mph 25.3 mph N/A Thunderstorm Overcast
5:55 PM 64.4 °F 62.6 °F 94% 29.72 in 9.0 mi SE 17.3 mph 23.0 mph N/A   Scattered Clouds
6:15 PM 64.4 °F 62.6 °F 94% 29.72 in 10.0 mi SSE 12.7 mph 17.3 mph N/A   Clear
6:35 PM 64.4 °F 62.6 °F 94% 29.71 in 10.0 mi SSE 8.1 mph - N/A   Clear
6:55 PM 64.4 °F 62.6 °F 94% 29.70 in 10.0 mi SSE 9.2 mph 16.1 mph N/A   Clear
7:15 PM 66.2 °F 62.6 °F 88% 29.70 in 10.0 mi South 9.2 mph - N/A   Clear
7:35 PM 66.2 °F 62.6 °F 88% 29.72 in 10.0 mi South 10.4 mph - N/A   Clear
7:55 PM 66.2 °F 62.6 °F 88% 29.73 in 10.0 mi South 5.8 mph - N/A   Clear
8:15 PM 66.2 °F 62.6 °F 88% 29.74 in 10.0 mi South 5.8 mph - N/A   Clear
8:35 PM 66.2 °F 62.6 °F 88% 29.74 in 10.0 mi South 5.8 mph - N/A   Clear
8:55 PM 64.4 °F 62.6 °F 94% 29.75 in 10.0 mi SSE 6.9 mph - N/A   Clear
9:15 PM 64.4 °F 62.6 °F 94% 29.74 in 10.0 mi SSE 4.6 mph - N/A   Clear
9:35 PM 64.4 °F 62.6 °F 94% 29.75 in 10.0 mi South 4.6 mph - N/A   Clear
9:55 PM 64.4 °F 62.6 °F 94% 29.76 in 10.0 mi South 5.8 mph - N/A   Clear
10:15 PM 64.4 °F 62.6 °F 94% 29.78 in 10.0 mi South 4.6 mph - N/A   Clear
10:35 PM 64.4 °F 62.6 °F 94% 29.80 in 10.0 mi Calm Calm - N/A   Clear
10:55 PM 64.4 °F 62.6 °F 94% 29.80 in 10.0 mi Calm Calm - N/A   Clear
11:15 PM 64.4 °F 62.6 °F 94% 29.79 in 10.0 mi ESE 3.5 mph - N/A   Scattered Clouds
11:35 PM 64.4 °F 62.6 °F 94% 29.79 in 10.0 mi NE 4.6 mph - N/A   Mostly Cloudy
11:55 PM 62.6 °F 62.6 °F 100% 29.78 in 10.0 mi NE 4.6 mph - N/A   Scattered Clouds